KINEIS-3C

Last updated on Thu Sep 24 2026 00:03:12 GMT+0000 (Coordinated Universal Time)

1 61220U 24172A 26266.48056634 .00001266 00000+0 20792-3 0 9992 2 61220 98.0409 355.3236 0001773 150.0563 210.0746 14.72341284107530
UTC large
Height (km)
Speed (km/s)
/
Latitude / Longitude
Inclination (degrees)
Orbital Period (minutes)
Azimuth
Elevation
Range (km)
Doppler Factor

Next 0 passes for location: London (51.5072 / 0.1276)

No passes found over London.
KINEIS-3C